Location: Buckeye Ditch
(40.9104°N, 122.9517°W)
Time: 14:55:30
(UTC+00:00)

A-11 Canister half - Pass Details

Date: 24 May 2025
Orbit: 1515 x 1684 km, 47.2° (Epoch: 14 June)

Event Time Altitude Azimuth Distance (km) Brightness Sun altitude
Rises 06:16:32 0° 230° (SW) 4,818 11.5 -23.0°
Reaches altitude 10° 06:19:41 10° 228° (SW) 3,812 10.9 -23.3°
Maximum altitude 06:29:17 73° 146° (SE) 1,621 8.8 -24.1°
Drops below altitude 10° 06:38:35 10° 64° (ENE) 3,702 11.0 -24.8°
Sets 06:41:36 0° 63° (ENE) 4,675 11.6 -25.0°
